GFSFLT1_250_spd_159.txt.gz
Wind_Speed
56 56 55 54 52 52 53 55 57 57 58 60 63 65 64 67 68 70 70 73 75 77 76 79 81 82 83 87 83 84 77 62
55 58 55 57 59 59 59 61 60 59 62 63 67 70 71 73 75 74 75 78 78 80 81 84 85 86 86 84 81 77 70 73
60 62 62 63 64 65 66 68 69 65 65 69 71 72 72 76 79 81 83 84 84 86 87 87 85 78 73 75 84 84 85 89
58 63 62 62 64 64 65 65 67 69 73 74 77 75 79 82 83 87 89 93 91 91 89 87 87 79 84 81 82 81 78 82
63 66 66 69 68 71 76 75 74 76 76 73 76 79 85 88 90 92 95 89 92 95 93 89 89 89 87 90 93 93 89 90
75 70 70 74 76 76 79 79 79 80 79 79 84 83 87 88 93 95 95 95 94 88 91 90 91 95 95 97 102 104 98 98
76 73 76 79 81 82 83 83 84 86 88 86 88 89 95 99 101 102 97 100 96 98 99 96 96 98 97 106 109 110 106 112
84 81 82 80 81 84 87 91 91 90 93 88 90 94 96 103 106 111 98 101 97 98 104 101 99 105 109 114 112 114 108 114
88 87 87 88 88 90 95 95 93 96 97 99 102 108 108 107 111 104 102 102 96 105 104 105 112 111 110 115 116 115 123 121
88 89 85 88 89 88 94 95 100 102 103 104 102 106 109 114 109 102 102 102 109 112 114 116 117 118 114 116 120 121 117 116
89 92 92 94 93 98 99 100 105 105 101 103 104 107 112 119 111 106 113 117 121 121 117 120 119 117 114 120 122 117 118 110
98 97 96 99 101 101 100 103 100 102 106 109 108 110 114 112 113 120 128 122 126 122 119 119 117 119 124 119 114 106 99 92
105 104 107 104 105 106 105 107 105 110 113 111 113 111 114 116 134 133 127 120 120 118 117 117 117 120 115 107 100 92 88 82
107 106 106 108 107 107 115 114 112 116 117 115 113 120 134 132 129 122 118 116 118 115 116 118 114 104 96 87 85 82 79 75
112 112 113 116 116 116 118 119 120 120 130 136 133 132 128 125 121 118 116 114 113 112 112 102 94 85 80 78 79 75 72 68
117 118 122 124 124 127 128 128 129 132 132 126 126 126 118 122 116 112 108 108 104 98 88 84 81 78 78 77 74 70 67 62
127 129 126 127 129 133 131 127 125 122 120 117 112 113 114 110 107 105 98 94 90 88 83 80 77 77 76 73 68 65 61 56
130 128 126 124 125 124 121 118 111 111 109 106 102 101 100 98 95 93 91 91 88 84 82 77 76 74 72 66 62 59 54 51
121 118 119 118 115 112 110 105 102 99 96 96 95 95 95 93 92 90 87 87 86 82 77 75 71 69 64 60 55 51 47 45

GFSFLT1_250_spd_162.txt.gz
Wind_Speed
56 52 58 57 54 59 58 56 56 58 58 59 58 55 56 55 55 58 62 67 69 71 69 65 69 75 80 81 80 82 82 83
58 61 59 56 51 56 58 58 60 59 59 61 59 58 61 61 61 61 64 67 69 75 77 74 74 74 75 78 80 82 83 80
61 58 72 69 61 54 55 56 57 56 56 60 64 64 67 66 68 71 68 72 75 77 80 83 85 89 90 90 90 84 81 81
65 56 70 74 72 66 61 62 66 68 66 68 67 71 76 74 77 76 76 77 79 80 81 86 88 92 90 96 96 90 89 89
66 57 72 75 74 73 72 73 76 72 70 74 76 77 77 80 80 85 86 87 83 83 86 92 98 99 97 101 101 97 99 93
73 61 67 77 78 73 74 74 76 77 81 81 84 85 82 84 87 90 86 86 91 94 96 101 101 100 102 106 102 97 105 104
74 68 69 76 79 76 77 82 83 82 87 87 89 84 87 89 91 95 90 96 99 99 100 99 102 106 106 108 108 104 105 110
77 72 69 78 86 84 86 90 91 90 95 94 91 88 87 89 92 91 97 105 103 99 99 103 108 108 113 110 113 104 116 111
79 82 82 84 83 84 86 88 92 93 95 94 94 96 98 96 100 102 98 100 106 104 102 108 110 114 118 114 118 117 110 113
86 83 84 84 90 90 97 98 94 95 98 98 100 100 103 102 105 107 109 111 109 109 107 112 113 116 114 123 123 117 114 113
85 90 91 92 93 99 102 104 102 97 99 104 111 111 111 111 109 103 107 109 113 111 112 115 117 119 115 122 124 116 113 112
87 89 91 96 98 100 103 105 104 108 112 112 115 113 112 114 116 117 119 116 114 117 117 121 119 122 123 121 113 115 112 111
91 90 95 97 97 100 102 109 106 110 111 109 112 111 115 116 116 119 118 119 121 122 129 126 123 117 115 109 110 108 106 102
94 97 101 101 99 106 107 108 111 118 116 114 114 117 122 120 121 121 132 132 129 126 123 119 114 111 109 107 105 101 96 92
105 107 112 108 107 110 117 119 124 121 119 119 119 122 124 119 128 134 133 134 134 125 118 110 108 105 100 98 96 92 83 77
121 121 119 121 120 127 130 126 127 127 124 123 124 126 125 123 124 125 126 125 120 114 107 103 98 95 91 87 86 83 75 74
138 140 139 138 141 138 136 137 127 127 122 122 122 118 121 122 121 121 117 112 104 104 96 94 90 88 86 85 82 76 71 69
138 137 131 130 126 120 122 120 116 113 113 111 109 107 107 109 107 103 101 96 95 96 93 94 92 89 85 82 76 74 68 66
127 121 116 115 115 109 111 110 105 105 104 105 107 104 102 98 93 92 91 90 93 91 90 88 88 85 82 78 73 68 64 60

GFSFLT1_250_spd_165.txt.gz
Wind_Speed
61 56 47 47 51 51 52 51 53 55 51 50 51 54 56 56 54 55 59 59 59 61 62 66 67 68 67 69 69 70 72 74
54 48 48 47 47 52 54 51 56 60 59 57 53 49 53 55 57 59 64 66 68 71 72 71 70 71 75 73 75 70 75 78
60 54 51 56 51 48 53 52 54 63 62 58 58 59 60 60 64 65 67 68 70 71 72 71 73 76 81 77 77 78 84 90
66 59 56 53 53 52 54 57 58 60 66 66 63 64 66 67 67 68 70 72 74 73 75 79 83 87 88 82 85 89 92 93
68 71 61 56 61 61 57 61 62 58 61 68 70 73 76 79 81 81 81 83 83 88 92 95 93 94 94 91 91 96 95 94
73 66 65 64 67 69 67 67 69 67 65 72 77 77 75 80 84 85 87 90 94 94 95 92 94 94 95 98 98 99 105 107
72 73 74 71 72 72 72 71 70 75 76 77 80 80 84 86 91 89 93 93 92 96 97 99 102 100 101 104 100 101 102 105
76 75 72 68 70 74 77 74 70 78 83 85 88 87 88 90 89 94 96 96 96 98 99 98 101 103 106 107 110 111 117 112
84 77 74 74 73 74 74 80 77 76 78 81 84 86 84 90 95 101 101 99 98 103 110 112 113 112 114 109 112 109 111 114
82 81 79 83 83 80 80 81 82 78 85 91 89 87 92 102 105 101 100 106 110 114 109 119 115 113 115 114 119 120 118 118
82 90 88 92 90 87 82 91 89 85 88 89 93 94 94 98 107 109 107 108 110 113 115 117 117 117 118 121 119 120 117 125
89 87 92 93 94 92 92 95 94 95 96 95 95 97 97 100 96 104 110 112 116 117 121 121 118 121 119 119 117 122 117 119
92 96 101 100 96 96 95 98 99 101 103 103 104 104 104 110 109 108 112 118 123 123 124 122 126 122 122 122 120 115 116 111
99 101 101 98 99 97 98 100 100 102 105 106 106 113 115 122 117 114 117 125 127 129 125 123 124 124 122 118 119 113 109 104
109 101 101 103 100 100 104 106 109 113 120 123 126 126 126 130 132 127 127 121 121 124 130 129 121 119 114 111 109 109 103 93
112 104 104 108 112 115 120 125 125 128 127 130 141 141 138 134 128 121 119 118 117 116 121 115 110 110 108 107 105 100 92 88
125 124 129 131 124 125 132 134 136 143 146 132 129 127 121 117 117 112 112 109 110 112 106 108 108 107 103 98 92 90 83 81
136 140 142 144 143 143 142 140 139 127 120 113 105 102 102 102 100 99 101 101 100 103 107 106 97 96 91 89 85 83 84 79
136 135 130 128 123 117 117 115 112 108 103 100 96 92 93 94 99 96 97 96 94 96 94 97 93 91 88 86 85 84 80 78

GFSFLT1_250_spd_171.txt.gz
Wind_Speed
51 49 46 48 44 44 47 50 49 45 46 49 48 45 44 42 44 45 48 50 50 49 49 54 56 56 55 59 64 65 66 66
50 52 50 53 53 54 56 50 51 52 53 58 51 52 51 50 46 46 50 52 53 49 54 55 57 64 69 66 68 70 69 72
55 50 48 51 54 53 56 59 57 56 55 54 53 54 52 53 51 53 51 53 56 56 57 60 61 65 67 70 72 74 74 76
60 59 55 55 58 58 58 55 52 54 54 56 59 55 53 49 59 56 55 51 53 56 59 62 67 67 67 68 71 74 80 83
64 65 61 58 54 55 58 58 59 57 57 58 64 65 65 59 67 64 64 63 62 62 61 67 68 67 69 73 76 81 86 91
72 66 64 62 63 62 59 58 58 55 59 62 64 67 68 74 76 69 66 68 75 71 68 71 65 71 77 80 82 83 87 90
81 77 76 71 66 64 65 63 60 58 67 66 62 68 72 77 79 82 73 71 76 81 82 80 82 80 83 86 89 89 88 92
83 78 78 78 71 64 66 65 66 68 71 71 73 78 76 76 82 83 81 78 80 77 80 82 85 85 85 84 91 97 99 100
78 83 81 76 73 67 68 67 67 78 75 76 79 77 83 84 87 84 84 91 89 93 86 86 89 89 89 92 93 94 98 99
87 90 85 80 82 83 71 73 76 81 81 79 86 76 82 88 90 91 94 95 95 96 94 94 100 103 103 108 104 100 100 100
96 91 88 90 84 79 74 79 82 86 83 70 77 79 79 85 104 93 96 97 98 95 94 109 108 112 112 115 117 113 111 110
98 89 86 84 83 78 78 84 85 86 66 74 82 85 81 96 97 100 102 100 101 111 109 112 119 120 117 118 117 117 120 118
89 83 84 81 80 76 83 83 81 94 86 90 81 97 106 105 101 103 106 113 116 121 123 124 123 126 123 121 121 123 124 124
91 86 83 74 79 83 88 91 93 100 103 101 103 104 107 110 111 115 118 121 124 124 126 126 127 129 128 126 128 127 125 123
104 98 111 116 113 114 117 122 119 113 101 102 105 106 109 114 116 120 123 122 125 127 126 129 128 128 128 127 127 125 123 119
117 113 116 119 118 117 118 121 121 122 120 116 117 117 118 117 121 123 127 126 128 129 129 124 124 118 118 120 116 114 111 110
121 119 119 123 121 117 116 121 124 125 123 118 118 117 116 111 109 110 110 111 110 108 109 108 107 106 105 105 105 105 105 102
118 114 115 113 114 115 115 116 116 115 113 108 105 107 106 105 107 105 103 100 97 96 98 100 102 100 99 100 99 98 97 96
104 108 109 109 109 109 110 110 109 107 108 107 102 98 97 96 95 92 91 89 87 88 88 90 91 92 92 90 91 93 94 91

GFSFLT1_250_spd_174.txt.gz
Wind_Speed
57 56 54 54 51 44 48 55 55 59 58 54 50 52 50 50 51 53 50 50 50 50 45 47 53 56 56 49 51 50 51 56
52 55 55 56 59 62 60 58 59 62 56 50 48 46 49 50 51 50 51 52 50 39 46 53 54 57 55 57 58 61 62 67
57 57 59 61 60 60 57 61 62 54 54 49 53 54 55 56 55 54 53 56 53 53 55 47 52 52 57 61 64 65 65 67
59 61 63 65 65 67 64 63 60 55 63 56 52 52 56 57 58 58 58 60 66 65 67 67 57 58 62 67 66 70 70 74
66 66 64 65 68 67 67 66 64 61 58 58 54 57 58 58 61 59 63 66 67 66 69 74 74 69 63 63 65 74 80 77
72 72 72 70 69 70 70 70 65 62 65 57 58 59 63 63 69 67 68 64 71 73 76 73 80 83 74 69 77 77 71 79
77 77 78 76 74 72 70 64 64 69 68 63 58 63 62 70 71 72 78 76 77 80 77 83 83 87 88 79 81 81 92 84
83 84 83 82 77 73 74 74 76 75 69 69 66 66 70 74 77 82 88 81 76 82 90 84 86 90 94 91 84 93 87 95
89 88 89 89 87 82 86 84 88 79 73 63 62 75 67 79 80 79 89 86 89 83 90 92 95 91 96 101 95 94 93 95
91 97 89 87 86 91 87 94 84 73 81 85 65 78 77 84 69 87 94 93 87 85 80 86 103 96 96 103 99 95 97 103
103 103 95 98 102 100 101 87 77 84 83 71 57 82 82 70 83 100 100 101 89 91 88 93 102 97 98 110 101 100 111 116
102 99 100 97 95 92 91 82 81 81 81 78 78 78 72 86 91 97 104 104 95 90 96 99 102 98 107 107 107 119 126 121
98 106 105 102 95 92 78 83 81 84 83 78 74 84 78 87 85 106 105 111 109 114 96 105 113 111 112 114 122 134 129 134
112 104 99 97 95 96 96 89 84 86 90 77 80 91 72 100 88 111 108 108 115 115 114 110 113 116 123 129 134 134 137 137
112 111 104 104 104 104 107 106 103 101 112 110 111 105 107 103 120 121 122 117 119 122 119 121 126 129 131 135 137 141 139 139
112 111 111 111 112 112 113 113 114 116 115 115 116 117 117 117 119 123 124 123 120 120 124 125 126 131 133 135 140 143 143 137
112 107 105 107 111 110 109 111 112 114 115 118 117 113 111 112 112 111 111 111 113 113 111 112 111 115 117 118 115 113 114 114
97 96 94 95 96 97 100 103 104 104 105 104 106 106 103 103 100 98 97 99 100 100 101 101 101 102 101 100 101 101 99 99
82 85 89 88 92 95 99 100 101 102 102 102 100 98 98 99 95 92 91 92 90 91 91 90 89 89 91 92 93 93 91 92